SPACEMOBILE-001

导读

SPACEMOBILE-001是一颗由美国发射的卫星,于北京时间2024年9月12日08:00成功入轨。该卫星归属太空移动(SpaceMobile)项目范畴,大概率服务于太空移动通信领域,有望拓展全球卫星互联网络覆盖范围,推动全球无缝移动通信网络的搭建,为偏远地区通信等场景提供新的解决方案。

基本信息
目录编号:
61047
目录名称:
SPACEMOBILE-001
国际标识:
2024-163C
轨道中心:
EARTH
卫星名称:
SPACEMOBILE-001
卫星全名:
SPACEMOBILE-001
卫星状态:
在轨 (已飞行641 天)
发射日期:
2024-09-12 UTC
国别 :
美国 (US)
星等 :
--
轨道信息
数据来源 国际轨道数据 AOE轨道数据
星历时间 2026-06-15T05:35:45+0800
7小时前
查看轨道信息
2026-06-15T07:00:00+0800
6小时前
查看轨道信息
半长轴 6881.546km 6881.48km
偏心率 0.0009175 0.0009224
轨道倾角 52.972° 52.974°
近地点辐角 105.408° 105.131°
升交点赤经 319.619° 319.350°
平近点角 254.792° 215.628°
近地点 497.095km 496.995km
远地点 509.723km 509.691km
周期 94.687分钟 94.685分钟
每日圈数 15.208059 15.208279
详细信息
使用方式:
暂无
2D轨道图
3D轨道图
轨道高度分析图
轨道倾角分析图
轨道综合分析图
查看轨道综合分析图